• En España
  • Lista de países
  • Para 7 días
  • Temperatura del agua
  • Mapa Satelital
  • El tiempo en el mapa
  • Informadores
  • user-avatar
    Iniciar sesión

    Tiempo cada hora Madrid

    Hoy, 18 Octubre, Jueves

    Tiempo Temperatura Precipitaciones Viento Presión Humedad
    00:00 +16°C° 0 mm 1 mps 703 mmHg 61%
    01:00 +16°C° 0 mm 1 mps 703 mmHg 62%
    02:00 +15°C° 0 mm 2 mps 702 mmHg 62%
    03:00 +15°C° 0 mm 2 mps 702 mmHg 62%
    04:00 +15°C° 0 mm 2 mps 702 mmHg 62%
    05:00 +14°C° 0 mm 3 mps 702 mmHg 62%
    06:00 +14°C° 0 mm 3 mps 702 mmHg 62%
    07:00 +16°C° 0 mm 3 mps 702 mmHg 58%
    08:00 +17°C° 0 mm 4 mps 702 mmHg 55%
    09:00 +18°C° 0 mm 4 mps 703 mmHg 51%
    10:00 +20°C° 0 mm 5 mps 703 mmHg 47%
    11:00 +21°C° 0 mm 5 mps 703 mmHg 42%
    12:00 +22°C° 0 mm 5 mps 703 mmHg 38%
    13:00 +22°C° 0.1 mm 5 mps 702 mmHg 39%
    14:00 +22°C° 0.1 mm 5 mps 702 mmHg 40%
    15:00 +22°C° 0.1 mm 6 mps 702 mmHg 41%
    16:00 +21°C° 0.1 mm 5 mps 702 mmHg 48%
    17:00 +20°C° 0.1 mm 5 mps 702 mmHg 54%
    18:00 +17°C° 0.1 mm 5 mps 702 mmHg 61%
    19:00 +17°C° 0.3 mm 5 mps 702 mmHg 64%
    20:00 +16°C° 0.3 mm 5 mps 703 mmHg 67%
    21:00 +16°C° 0.3 mm 5 mps 703 mmHg 71%
    22:00 +15°C° 1.4 mm 5 mps 703 mmHg 72%
    23:00 +15°C° 1.4 mm 6 mps 702 mmHg 74%

    Mañana, 19 Octubre, Viernes

    Tiempo Temperatura Precipitaciones Viento Presión Humedad
    00:00 +15°C° 1.4 mm 6 mps 702 mmHg 75%
    01:00 +15°C° 2 mm 6 mps 702 mmHg 76%
    02:00 +15°C° 2 mm 6 mps 702 mmHg 77%
    03:00 +15°C° 2 mm 6 mps 701 mmHg 77%
    04:00 +15°C° 0.4 mm 6 mps 702 mmHg 77%
    05:00 +15°C° 0.4 mm 6 mps 702 mmHg 76%
    06:00 +15°C° 0.4 mm 6 mps 702 mmHg 76%
    07:00 +16°C° 0 mm 6 mps 703 mmHg 74%
    08:00 +16°C° 0 mm 6 mps 703 mmHg 73%
    09:00 +17°C° 0 mm 6 mps 704 mmHg 71%
    10:00 +17°C° 0.6 mm 6 mps 704 mmHg 71%
    11:00 +17°C° 0.6 mm 5 mps 704 mmHg 72%
    12:00 +17°C° 0.6 mm 5 mps 704 mmHg 72%
    13:00 +17°C° 0.8 mm 5 mps 704 mmHg 73%
    14:00 +17°C° 0.8 mm 5 mps 704 mmHg 73%
    15:00 +18°C° 0.8 mm 4 mps 704 mmHg 73%
    16:00 +18°C° 0.6 mm 4 mps 704 mmHg 75%
    17:00 +17°C° 0.6 mm 4 mps 705 mmHg 76%
    18:00 +17°C° 0.6 mm 3 mps 705 mmHg 78%
    19:00 +17°C° 0.2 mm 3 mps 705 mmHg 79%
    20:00 +17°C° 0.2 mm 4 mps 706 mmHg 80%
    21:00 +15°C° 0.2 mm 4 mps 707 mmHg 81%
    22:00 +15°C° 0 mm 4 mps 707 mmHg 82%
    23:00 +15°C° 0 mm 4 mps 707 mmHg 83%

    Pasado mañana, 20 Octubre, Sábado

    Tiempo Temperatura Precipitaciones Viento Presión Humedad
    00:00 +14°C° 0 mm 3 mps 707 mmHg 84%
    01:00 +14°C° 0 mm 4 mps 707 mmHg 84%
    02:00 +14°C° 0 mm 4 mps 707 mmHg 84%
    03:00 +14°C° 0 mm 4 mps 707 mmHg 84%
    04:00 +13°C° 0 mm 4 mps 707 mmHg 83%
    05:00 +13°C° 0 mm 4 mps 708 mmHg 81%
    06:00 +13°C° 0 mm 4 mps 708 mmHg 79%
    07:00 +15°C° 0 mm 5 mps 708 mmHg 74%
    08:00 +16°C° 0 mm 6 mps 709 mmHg 68%
    09:00 +17°C° 0 mm 6 mps 709 mmHg 63%
    10:00 +19°C° 0 mm 6 mps 709 mmHg 59%
    11:00 +21°C° 0 mm 6 mps 710 mmHg 55%
    12:00 +22°C° 0 mm 6 mps 710 mmHg 51%
    13:00 +22°C° 0 mm 6 mps 709 mmHg 52%
    14:00 +22°C° 0 mm 6 mps 709 mmHg 53%
    15:00 +21°C° 0 mm 5 mps 709 mmHg 55%
    16:00 +21°C° 0 mm 5 mps 709 mmHg 58%
    17:00 +20°C° 0 mm 4 mps 709 mmHg 62%
    18:00 +19°C° 0 mm 3 mps 709 mmHg 65%
    19:00 +19°C° 0 mm 4 mps 709 mmHg 68%
    20:00 +18°C° 0 mm 4 mps 710 mmHg 70%
    21:00 +18°C° 0 mm 4 mps 710 mmHg 72%
    22:00 +17°C° 0.1 mm 4 mps 710 mmHg 73%
    23:00 +17°C° 0.1 mm 4 mps 710 mmHg 74%

    21 Octubre, Domingo

    Tiempo Temperatura Precipitaciones Viento Presión Humedad
    00:00 +17°C° 0.1 mm 3 mps 710 mmHg 75%
    01:00 +16°C° 0.2 mm 3 mps 710 mmHg 75%
    02:00 +16°C° 0.2 mm 3 mps 710 mmHg 76%
    03:00 +16°C° 0.2 mm 3 mps 710 mmHg 76%
    04:00 +16°C° 0.3 mm 3 mps 710 mmHg 76%
    05:00 +16°C° 0.3 mm 3 mps 710 mmHg 77%
    06:00 +14°C° 0.3 mm 3 mps 710 mmHg 77%
    07:00 +16°C° 0.2 mm 3 mps 710 mmHg 73%
    08:00 +17°C° 0.2 mm 3 mps 711 mmHg 70%
    09:00 +18°C° 0.2 mm 4 mps 711 mmHg 66%
    10:00 +19°C° 0 mm 3 mps 711 mmHg 64%
    11:00 +20°C° 0 mm 3 mps 711 mmHg 62%
    12:00 +21°C° 0 mm 3 mps 711 mmHg 60%
    13:00 +21°C° 0 mm 3 mps 710 mmHg 58%
    14:00 +22°C° 0 mm 3 mps 710 mmHg 55%
    15:00 +22°C° 0 mm 3 mps 710 mmHg 53%
    16:00 +21°C° 0.4 mm 3 mps 710 mmHg 58%
    17:00 +20°C° 0.4 mm 2 mps 710 mmHg 63%
    18:00 +19°C° 0.4 mm 2 mps 710 mmHg 67%
    19:00 +19°C° 0.1 mm 3 mps 710 mmHg 69%
    20:00 +19°C° 0.1 mm 3 mps 711 mmHg 71%
    21:00 +18°C° 0.1 mm 3 mps 711 mmHg 73%
    22:00 +18°C° 0.1 mm 3 mps 711 mmHg 75%
    23:00 +18°C° 0.1 mm 3 mps 711 mmHg 77%

    22 Octubre, Lunes

    Tiempo Temperatura Precipitaciones Viento Presión Humedad
    00:00 +18°C° 0.1 mm 3 mps 711 mmHg 79%
    01:00 +17°C° 0.1 mm 3 mps 711 mmHg 81%
    02:00 +17°C° 0.1 mm 3 mps 711 mmHg 83%
    03:00 +16°C° 0.1 mm 2 mps 711 mmHg 85%
    04:00 +16°C° 0.1 mm 2 mps 711 mmHg 85%
    05:00 +16°C° 0.1 mm 2 mps 711 mmHg 86%
    06:00 +16°C° 0.1 mm 2 mps 711 mmHg 87%
    07:00 +17°C° 0 mm 3 mps 711 mmHg 83%
    08:00 +17°C° 0 mm 3 mps 712 mmHg 79%
    09:00 +18°C° 0 mm 3 mps 712 mmHg 74%
    10:00 +19°C° 0.1 mm 3 mps 712 mmHg 69%
    11:00 +20°C° 0.1 mm 3 mps 712 mmHg 63%
    12:00 +21°C° 0.1 mm 2 mps 712 mmHg 57%
    13:00 +23°C° 0.1 mm 2 mps 711 mmHg 54%
    14:00 +23°C° 0.1 mm 2 mps 711 mmHg 52%
    15:00 +24°C° 0.1 mm 2 mps 710 mmHg 49%
    16:00 +23°C° 0.1 mm 2 mps 710 mmHg 53%
    17:00 +21°C° 0.1 mm 2 mps 710 mmHg 57%
    18:00 +21°C° 0.1 mm 1 mps 710 mmHg 61%
    19:00 +20°C° 0.1 mm 1 mps 710 mmHg 63%
    20:00 +19°C° 0.1 mm 2 mps 711 mmHg 65%
    21:00 +18°C° 0.1 mm 2 mps 711 mmHg 68%
    22:00 +18°C° 0.2 mm 2 mps 711 mmHg 70%
    23:00 +17°C° 0.2 mm 2 mps 711 mmHg 72%

    23 Octubre, Martes

    Tiempo Temperatura Precipitaciones Viento Presión Humedad
    00:00 +17°C° 0.2 mm 2 mps 711 mmHg 74%
    01:00 +16°C° 0 mm 2 mps 710 mmHg 75%
    02:00 +16°C° 0 mm 2 mps 710 mmHg 76%
    03:00 +16°C° 0 mm 2 mps 710 mmHg 77%
    04:00 +15°C° 0 mm 2 mps 710 mmHg 77%
    05:00 +15°C° 0 mm 2 mps 710 mmHg 77%
    06:00 +15°C° 0 mm 2 mps 710 mmHg 77%
    07:00 +16°C° 0 mm 2 mps 710 mmHg 71%
    08:00 +17°C° 0 mm 3 mps 710 mmHg 65%
    09:00 +19°C° 0 mm 3 mps 710 mmHg 58%
    10:00 +20°C° 0 mm 3 mps 710 mmHg 53%
    11:00 +21°C° 0 mm 3 mps 710 mmHg 48%
    12:00 +22°C° 0 mm 3 mps 710 mmHg 43%
    13:00 +22°C° 0 mm 3 mps 709 mmHg 41%
    14:00 +22°C° 0 mm 3 mps 709 mmHg 39%
    15:00 +24°C° 0 mm 3 mps 708 mmHg 36%
    16:00 +21°C° 0 mm 3 mps 708 mmHg 38%
    17:00 +20°C° 0 mm 2 mps 708 mmHg 40%
    18:00 +19°C° 0 mm 2 mps 708 mmHg 41%
    19:00 +18°C° 0 mm 3 mps 708 mmHg 43%
    20:00 +17°C° 0 mm 4 mps 708 mmHg 45%
    21:00 +15°C° 0 mm 4 mps 709 mmHg 47%
    22:00 +14°C° 0 mm 4 mps 708 mmHg 49%
    23:00 +14°C° 0 mm 4 mps 708 mmHg 51%
    Mostrar más